This demonstration page uses our WeatherBlox Daily Observations layout. Learn more.

Left ArrowRight Arrow

44.8408, -93.29828

Hourly Observations for July 13, 2017

Temp ( °F °C ) Dew Point ( °F °C ) Humidity (%) Winds ( mph kmh ) Pressure ( in mb ) Visibility ( mi km ) Precip ( " mm )
12:48 am 00:48 Cloudy 70 21 61 16 73 73 WNW 6 9 29.94 1014 10 16 0.00 0.00
12:53 am 00:53 Cloudy 71 21.7 60 15.6 68 68 WNW 9 15 29.95 1014 10 16 0.00 0.00
1:53 am 01:53 Cloudy 70 21.1 61 16.1 73 73 WNW 14 22 29.96 1014 10 16 0.00 0.00
2:06 am 02:06 Cloudy 69 20.6 61 16.1 76 76 WNW 13 20 29.94 1014 10 16 0.00 0.00
2:53 am 02:53 Cloudy 69 20.6 61 16.1 76 76 NW 10 17 29.96 1015 10 16 0.00 0.00
3:13 am 03:13 Cloudy 69 20.6 61 16.1 76 76 NW 13 20 29.94 1014 10 16 0.00 0.00
3:53 am 03:53 Cloudy 67 19.4 60 15.6 79 79 N 8 13 29.98 1015 10 16 0.00 0.00
4:53 am 04:53 Cloudy 63 17.2 58 14.4 84 84 N 10 17 30.00 1016 9 14 0.00 0.00
5:12 am 05:12 Cloudy with Light Rain 62 16.7 59 15 90 90 N 10 17 30.00 1016 9 14 0.00 0.03
5:24 am 05:24 Cloudy with Light Rain 61 16.1 58 14.4 90 90 N 9 15 30.00 1016 7 11 0.00 0.03
5:53 am 05:53 Cloudy 60 15.6 57 13.9 90 90 N 8 13 30.03 1017 10 16 0.00 0.03
6:53 am 06:53 Cloudy 59 15 54 12.2 83 83 N 9 15 30.06 1018 10 16 0.00 0.00
7:10 am 07:10 Cloudy 59 15 54 12.2 83 83 NNE 10 17 30.06 1018 10 16 0.00 0.00
7:53 am 07:53 Cloudy 59 15 54 12.2 83 83 N 10 17 30.08 1019 10 16 0.00 0.00
8:53 am 08:53 Cloudy 60 15.6 53 11.7 78 78 N 8 13 30.09 1019 10 16 0.00 0.00
9:53 am 09:53 Mostly Cloudy 62 16.7 53 11.7 73 73 N 12 19 30.10 1019 10 16 0.00 0.00
10:53 am 10:53 Cloudy 63 17.2 52 11.1 68 68 N 9 15 30.11 1020 10 16 0.00 0.00
11:53 am 11:53 Mostly Cloudy 67 19.4 53 11.7 61 61 N 7 11 30.11 1020 10 16 0.00 0.00
12:53 pm 12:53 Mostly Cloudy 70 21.1 54 12.2 57 57 N 12 19 30.10 1019 10 16 0.00 0.00
1:20 pm 13:20 Mostly Cloudy 69 20.6 53 11.7 57 57 NNW 12 19 30.09 1019 10 16 0.00 0.00
1:53 pm 13:53 Cloudy 71 21.7 54 12.2 55 55 NNW 12 19 30.10 1019 10 16 0.00 0.00
2:53 pm 14:53 Cloudy 69 20.6 54 12.2 59 59 NNW 12 19 30.11 1020 10 16 0.00 0.00
3:53 pm 15:53 Cloudy 68 20 54 12.2 61 61 N 13 20 30.12 1020 10 16 0.00 0.00
4:53 pm 16:53 Cloudy 67 19.4 53 11.7 61 61 N 13 20 30.14 1021 10 16 0.00 0.00
5:53 pm 17:53 Cloudy 67 19.4 53 11.7 61 61 N 8 13 30.14 1021 10 16 0.00 0.00
6:53 pm 18:53 Cloudy 67 19.4 53 11.7 61 61 NNW 8 13 30.13 1020 10 16 0.00 0.00
7:53 pm 19:53 Cloudy 66 18.9 54 12.2 65 65 NE 8 13 30.14 1021 10 16 0.00 0.00
8:53 pm 20:53 Cloudy 65 18.3 53 11.7 66 66 NE 9 15 30.14 1021 10 16 0.00 0.00
9:53 pm 21:53 Cloudy 64 17.8 54 12.2 70 70 NNE 8 13 30.16 1021 10 16 0.00 0.00
10:53 pm 22:53 Cloudy 63 17.2 54 12.2 73 73 N 5 7 30.17 1022 10 16 0.00 0.00
11:53 pm 23:53 Cloudy 63 17.2 53 11.7 70 70 N 7 11 30.17 1022 10 16 0.00 0.00

Powered by AerisWeather